• In Portugal
  • List of Countries
  • For 7 days
  • Water Temperature
  • Satellite Maps
  • Weather Map
  • Weather Widgets
  • user-avatar
    Login

    Hourly Weather Bulgan

    Today, 20 September, Thursday

    Time Temperature Precipitation Wind Pressure Humidity
    00:00 -7°C° 0 mm 4 mps 627 mmHg 81%
    01:00 -7°C° 0 mm 4 mps 627 mmHg 80%
    02:00 -7°C° 0 mm 4 mps 627 mmHg 80%
    03:00 -5°C° 0 mm 4 mps 627 mmHg 80%
    04:00 -6°C° 0 mm 5 mps 627 mmHg 80%
    05:00 -6°C° 0 mm 5 mps 627 mmHg 79%
    06:00 -6°C° 0 mm 5 mps 628 mmHg 78%
    07:00 -6°C° 0 mm 5 mps 628 mmHg 77%
    08:00 -5°C° 0 mm 6 mps 628 mmHg 72%
    09:00 -3°C° 0 mm 7 mps 628 mmHg 67%
    10:00 -2°C° 0 mm 8 mps 628 mmHg 63%
    11:00 -2°C° 0 mm 8 mps 628 mmHg 62%
    12:00 -1°C° 0 mm 8 mps 628 mmHg 61%
    13:00 -1°C° 0 mm 9 mps 628 mmHg 61%
    14:00 -1°C° 0.1 mm 8 mps 628 mmHg 62%
    15:00 -1°C° 0.1 mm 7 mps 629 mmHg 63%
    16:00 -1°C° 0.1 mm 7 mps 629 mmHg 64%
    17:00 -2°C° 0 mm 6 mps 629 mmHg 67%
    18:00 -1°C° 0 mm 5 mps 629 mmHg 69%
    19:00 -2°C° 0 mm 4 mps 629 mmHg 72%
    20:00 -3°C° 0 mm 4 mps 629 mmHg 71%
    21:00 -3°C° 0 mm 4 mps 630 mmHg 71%
    22:00 -3°C° 0 mm 4 mps 630 mmHg 71%
    23:00 -4°C° 0 mm 4 mps 630 mmHg 72%

    Tomorrow, 21 September, Friday

    Time Temperature Precipitation Wind Pressure Humidity
    00:00 -4°C° 0 mm 4 mps 630 mmHg 72%
    01:00 -4°C° 0 mm 3 mps 630 mmHg 73%
    02:00 -5°C° 0 mm 3 mps 630 mmHg 74%
    03:00 -5°C° 0 mm 3 mps 631 mmHg 74%
    04:00 -5°C° 0 mm 3 mps 631 mmHg 75%
    05:00 -5°C° 0 mm 3 mps 631 mmHg 75%
    06:00 -5°C° 0 mm 3 mps 631 mmHg 74%
    07:00 -4°C° 0 mm 3 mps 632 mmHg 73%
    08:00 -2°C° 0 mm 3 mps 632 mmHg 66%
    09:00 -1°C° 0 mm 4 mps 632 mmHg 60%
    10:00 +1°C° 0 mm 5 mps 633 mmHg 53%
    11:00 +2°C° 0 mm 5 mps 633 mmHg 50%
    12:00 +4°C° 0 mm 4 mps 633 mmHg 48%
    13:00 +6°C° 0 mm 4 mps 633 mmHg 45%
    14:00 +6°C° 0 mm 4 mps 632 mmHg 47%
    15:00 +7°C° 0 mm 3 mps 632 mmHg 48%
    16:00 +7°C° 0 mm 3 mps 632 mmHg 50%
    17:00 +5°C° 0 mm 2 mps 632 mmHg 54%
    18:00 +4°C° 0 mm 1 mps 631 mmHg 59%
    19:00 +2°C° 0 mm 1 mps 631 mmHg 63%
    20:00 +2°C° 0 mm 1 mps 631 mmHg 63%
    21:00 +1°C° 0 mm 1 mps 631 mmHg 63%
    22:00 +1°C° 0 mm 1 mps 631 mmHg 62%
    23:00 +1°C° 0 mm 1 mps 631 mmHg 62%

    Day after tomorrow, 22 September, Saturday

    Time Temperature Precipitation Wind Pressure Humidity
    00:00 +1°C° 0 mm 1 mps 631 mmHg 62%
    01:00 0°C° 0 mm 1 mps 631 mmHg 62%
    02:00 0°C° 0 mm 1 mps 631 mmHg 63%
    03:00 0°C° 0 mm 1 mps 631 mmHg 63%
    04:00 -1°C° 0 mm 0 mps 631 mmHg 63%
    05:00 -1°C° 0 mm 0 mps 632 mmHg 63%
    06:00 -1°C° 0 mm 0 mps 632 mmHg 63%
    07:00 0°C° 0 mm 0 mps 633 mmHg 63%
    08:00 +2°C° 0 mm 0 mps 633 mmHg 58%
    09:00 +4°C° 0 mm 0 mps 634 mmHg 52%
    10:00 +6°C° 0 mm 0 mps 634 mmHg 47%
    11:00 +7°C° 0 mm 0 mps 634 mmHg 45%
    12:00 +9°C° 0 mm 1 mps 634 mmHg 42%
    13:00 +10°C° 0 mm 1 mps 634 mmHg 40%
    14:00 +10°C° 0 mm 1 mps 634 mmHg 41%
    15:00 +10°C° 0 mm 1 mps 633 mmHg 43%
    16:00 +10°C° 0 mm 1 mps 633 mmHg 44%
    17:00 +8°C° 0 mm 1 mps 633 mmHg 50%
    18:00 +6°C° 0 mm 1 mps 632 mmHg 56%
    19:00 +3°C° 0 mm 1 mps 632 mmHg 62%
    20:00 +3°C° 0 mm 1 mps 632 mmHg 64%
    21:00 +3°C° 0 mm 1 mps 632 mmHg 65%
    22:00 +2°C° 0 mm 1 mps 632 mmHg 67%
    23:00 +2°C° 0 mm 1 mps 632 mmHg 68%

    23 September, Sunday

    Time Temperature Precipitation Wind Pressure Humidity
    00:00 +2°C° 0 mm 1 mps 632 mmHg 69%
    01:00 +1°C° 0 mm 1 mps 632 mmHg 70%
    02:00 +1°C° 0 mm 1 mps 631 mmHg 70%
    03:00 +1°C° 0 mm 1 mps 631 mmHg 70%
    04:00 +1°C° 0 mm 1 mps 631 mmHg 70%
    05:00 +1°C° 0 mm 1 mps 631 mmHg 69%
    06:00 +1°C° 0 mm 1 mps 632 mmHg 68%
    07:00 +2°C° 0 mm 1 mps 632 mmHg 67%
    08:00 +4°C° 0 mm 1 mps 632 mmHg 61%
    09:00 +6°C° 0 mm 1 mps 632 mmHg 55%
    10:00 +8°C° 0 mm 1 mps 633 mmHg 48%
    11:00 +8°C° 0 mm 2 mps 632 mmHg 46%
    12:00 +9°C° 0 mm 2 mps 632 mmHg 43%
    13:00 +12°C° 0 mm 2 mps 632 mmHg 41%
    14:00 +10°C° 0 mm 2 mps 632 mmHg 43%
    15:00 +10°C° 0 mm 2 mps 631 mmHg 46%
    16:00 +10°C° 0 mm 2 mps 631 mmHg 48%
    17:00 +8°C° 0 mm 2 mps 631 mmHg 55%
    18:00 +6°C° 0 mm 2 mps 630 mmHg 61%
    19:00 +4°C° 0 mm 2 mps 630 mmHg 67%
    20:00 +4°C° 0 mm 2 mps 630 mmHg 67%
    21:00 +4°C° 0 mm 2 mps 629 mmHg 68%
    22:00 +4°C° 0 mm 1 mps 629 mmHg 68%
    23:00 +4°C° 0 mm 1 mps 629 mmHg 68%

    24 September, Monday

    Time Temperature Precipitation Wind Pressure Humidity
    00:00 +4°C° 0 mm 1 mps 629 mmHg 68%
    01:00 +3°C° 0 mm 1 mps 629 mmHg 68%
    02:00 +3°C° 0 mm 1 mps 629 mmHg 68%
    03:00 +3°C° 0 mm 1 mps 629 mmHg 68%
    04:00 +3°C° 0 mm 1 mps 629 mmHg 68%
    05:00 +3°C° 0 mm 1 mps 629 mmHg 68%
    06:00 +4°C° 0 mm 1 mps 629 mmHg 68%
    07:00 +4°C° 0 mm 1 mps 629 mmHg 68%
    08:00 +6°C° 0 mm 1 mps 629 mmHg 62%
    09:00 +8°C° 0 mm 1 mps 629 mmHg 56%
    10:00 +10°C° 0 mm 1 mps 630 mmHg 50%
    11:00 +12°C° 0 mm 1 mps 630 mmHg 47%
    12:00 +13°C° 0 mm 1 mps 630 mmHg 44%
    13:00 +14°C° 0 mm 1 mps 630 mmHg 41%
    14:00 +14°C° 0 mm 1 mps 629 mmHg 43%
    15:00 +14°C° 0 mm 1 mps 629 mmHg 45%
    16:00 +14°C° 0 mm 2 mps 629 mmHg 48%
    17:00 +12°C° 0 mm 2 mps 628 mmHg 54%
    18:00 +9°C° 0 mm 2 mps 627 mmHg 59%
    19:00 +7°C° 0 mm 2 mps 627 mmHg 65%
    20:00 +8°C° 0 mm 1 mps 627 mmHg 65%
    21:00 +7°C° 0 mm 1 mps 626 mmHg 65%
    22:00 +7°C° 0 mm 1 mps 626 mmHg 65%
    23:00 +7°C° 0 mm 1 mps 626 mmHg 65%

    25 September, Tuesday

    Time Temperature Precipitation Wind Pressure Humidity
    00:00 +6°C° 0 mm 1 mps 626 mmHg 64%
    01:00 +6°C° 0 mm 1 mps 625 mmHg 64%
    02:00 +6°C° 0 mm 1 mps 625 mmHg 64%
    03:00 +6°C° 0 mm 1 mps 625 mmHg 65%
    04:00 +5°C° 0 mm 0 mps 624 mmHg 65%
    05:00 +6°C° 0 mm 1 mps 624 mmHg 65%
    06:00 +6°C° 0 mm 1 mps 625 mmHg 66%
    07:00 +7°C° 0 mm 1 mps 625 mmHg 66%
    08:00 +7°C° 0 mm 0 mps 625 mmHg 63%
    09:00 +8°C° 0 mm 0 mps 625 mmHg 60%
    10:00 +9°C° 0 mm 0 mps 625 mmHg 57%
    11:00 +10°C° 0 mm 0 mps 625 mmHg 55%
    12:00 +12°C° 0 mm 1 mps 625 mmHg 53%
    13:00 +13°C° 0 mm 1 mps 624 mmHg 51%
    14:00 +13°C° 0 mm 1 mps 624 mmHg 52%
    15:00 +13°C° 0 mm 1 mps 624 mmHg 53%
    16:00 +13°C° 0 mm 2 mps 624 mmHg 54%
    17:00 +11°C° 0.2 mm 1 mps 623 mmHg 61%
    18:00 +10°C° 0.2 mm 1 mps 623 mmHg 68%
    19:00 +8°C° 0.2 mm 1 mps 622 mmHg 75%
    20:00 +8°C° 0.3 mm 1 mps 622 mmHg 78%
    21:00 +7°C° 0.3 mm 1 mps 622 mmHg 82%
    22:00 +7°C° 0.3 mm 1 mps 622 mmHg 85%
    23:00 +7°C° 0.3 mm 1 mps 622 mmHg 86%
    Show more